Location: Helstorf
(52.5868°N, 9.5862°E)
Time: 13:48:04
(UTC+00:00)

Cosmos 2360 Rocket - Pass Details

Date: 15 May 2026
Orbit: 831 x 845 km, 71.0° (Epoch: 10 June)

Event Time Altitude Azimuth Distance (km) Brightness Sun altitude
Rises 20:00:22 0° 329° (NNW) 3,417 7.2 -6.6°
Reaches altitude 10° 20:02:52 10° 333° (NNW) 2,479 6.0 -6.9°
Maximum altitude 20:08:29 58° 53° (NE) 988 2.6 -7.5°
Drops below altitude 10° 20:14:04 10° 132° (SE) 2,463 3.9 -8.1°
Enters shadow 20:14:07 10° 132° (SE) 2,482 4.0 -8.1°
